Location: Unspecified
(42.3650°N, 71.1030°W)
Time: 14:12:29
(UTC+00:00)

Explorer 11/Cluster Stage 4 - Pass Details

Date: 23 June 2024
Orbit: 465 x 1214 km, 28.8° (Epoch: 22 July)

Event Time Altitude Azimuth Distance (km) Brightness Sun altitude
Rises 03:06:26 0° 250° (WSW) 4,118 10.3 -20.3°
Reaches altitude 10° 03:09:51 10° 240° (WSW) 3,120 9.6 -20.5°
Enters shadow 03:15:32 27° 194° (SSW) 2,013 8.2 -20.9°
Maximum altitude 03:16:11 27° 186° (S) 1,983 - -21.0°
Drops below altitude 10° 03:21:56 10° 131° (SE) 2,805 - -21.4°
Sets 03:24:51 0° 119° (ESE) 3,636 - -21.6°
